Location: D�derode
(51.8092°N, 10.1065°E)
Time: 06:06:59
(UTC+00:00)

Cosmos 2369 Rocket - Pass Details

Date: 01 December 2020
Orbit: 829 x 852 km, 71.0° (Epoch: 23 January)

Event Time Altitude Azimuth Distance (km) Brightness Sun altitude
Rises 16:05:12 0° 330° (NNW) 3,428 5.4 -7.8°
Reaches altitude 10° 16:07:46 10° 336° (NNW) 2,487 4.6 -8.2°
Maximum altitude 16:13:18 48° 51° (NE) 1,095 2.4 -9.0°
Drops below altitude 10° 16:18:45 10° 126° (SE) 2,460 4.3 -9.7°
Sets 16:21:17 0° 131° (SE) 3,387 5.1 -10.1°
